Regional Weather Roundup
Issued by NWS

Home | Current Version | Previous Version | Graphics & Text | Print | Product List | Glossary On
Versions: 1 2 3 4 5 6 7 8 9 10 11 12 13 14 15 16 17 18 19 20 21 22 23 24 25 26 27 28 29 30 31 32 33 34 35 36 37 38 39 40 41 42 43 44 45 46 47 48 49 50
253
ASUS43 KLOT 120108
RWRIL

ILLINOIS REGIONAL WEATHER ROUNDUP
NATIONAL WEATHER SERVICE CHICAGO/ROMEOVILLE IL
700 PM CST MON DEC 11 2017

NOTE: "FAIR" INDICATES FEW OR NO CLOUDS BELOW 12,000 FEET WITH NO
SIGNIFICANT WEATHER AND/OR OBSTRUCTIONS TO VISIBILITY.

* THESE STATIONS ARE NOT UNDER NWS QUALITY CONTROL. THEY ALSO MAY NOT
  REPORT WEATHER SUCH AS PRECIPITATION OR FOG.

ILZ001-002-007-009-015-016-024-120200-
NORTHWEST ILLINOIS

CITY           SKY/WX    TMP DP  RH WIND       PRES   REMARKS
MOLINE         CLOUDY    37  34  89 NW15      29.89R WCI  28
STERLING*        N/A    N/A N/A N/A MISG        N/A
SAVANNA*       CLOUDY    32  31  94 NW13G18   29.87R WCI  23
$$

ILZ003-004-008-010-011-017-018-120200-
NORTH CENTRAL ILLINOIS

CITY           SKY/WX    TMP DP  RH WIND       PRES   REMARKS
ROCKFORD       CLOUDY    32  28  85 N12       29.83R WCI  23
FREEPORT*      CLOUDY    32  28  87 NW12      29.86R WCI  23
ROCHELLE*      CLOUDY    32  31  96 NW8       29.82R FOG     WCI  25
DE KALB*       CLOUDY    32  30  93 NW7       29.79R WCI  25
PERU*          CLOUDY    32  31  95 NW9       29.82R WCI  24
$$

ILZ005-006-012>014-019>023-120200-
NORTHEAST ILLINOIS

CITY           SKY/WX    TMP DP  RH WIND       PRES   REMARKS
CHICAGO-OHARE  CLOUDY    33  30  88 NW12      29.76S WCI  24
CHICAGO-MIDWAY LGT SNOW  34  33  96 NW9       29.77R FOG     WCI  27
AURORA         CLOUDY    32  31  96 NW10      29.79R FOG     WCI  24
LANSING*       LGT SNOW  33  32  94 N8        29.76R WCI  27
JOLIET*        RAIN      34  33  98 NW5       29.79R WCI  30
WAUKEGAN       CLOUDY    32  29  88 NW7       29.76R FOG     WCI  26
DUPAGE AIRPORT CLOUDY    32  31  96 NW13      29.77R FOG     WCI  22
KANKAKEE*      CLOUDY    37  26  67 N10       29.76R WCI  29
WHEELING       CLOUDY    33  31  92 NW10      29.78R WCI  25
MORRIS*        LGT SNOW  33  32  96 NW8       29.78R WCI  26
ROMEOVILLE*    LGT SNOW  32  32  99 NW8       29.78R WCI  25
NORTHERLY ISL    N/A     34  31  89 W9          N/A  WCI  27
$$

LMZ740>746-120200-
SOUTHERN LAKE MICHIGAN

STATION/POSITION SKY/WX   TEMP    WIND        PRES    VSBY  WAVE
                          AIR SEA DIR/SP/G                  HT/PER
                          (F)     (DEG/KT/KT) (MB)    (MI)  (FT/S)
HARRISON CRIB              34     310/ 11/ 13   N/A
BURNHAM HARBOR             34     280/  9/ 11   N/A
CALUMET HARBOR             33     290/  5/  7 1007.2R
BURNS HARBOR               35      10/  6/  8 1007.8R
MICHIGAN CITY              34     360/  8/  8   N/A
$$

ILZ025>027-034>036-040-047-049-050-058-095>099-120200-
WEST-CENTRAL ILLINOIS

CITY           SKY/WX    TMP DP  RH WIND       PRES   REMARKS
QUINCY         CLOUDY    42  33  70 NW20      29.94R
GALESBURG*     CLOUDY    35  35  99 NW12G17   29.90R WCI  27
MACOMB*        LGT RAIN  37  35  94 NW18      29.93R WCI  27
JACKSONVILLE*  CLOUDY    41  32  71 NW20G30   29.90R
PITTSFIELD*    CLOUDY    44  34  68 NW16G25   29.93R
$$

ILZ028>032-037-038-041>044-048-051>054-059>061-120200-
CENTRAL ILLINOIS

CITY           SKY/WX    TMP DP  RH WIND       PRES   REMARKS
PONTIAC        CLOUDY    35  34  96 N13       29.80R WCI  26
BLOOMINGTON    FLURRIES  34  31  88 NW18G26   29.81R WCI  23
DECATUR        CLOUDY    42  28  57 NW18G32   29.82R
PEORIA         CLOUDY    37  32  82 NW12G24   29.86R WCI  29
LACON*         CLOUDY    33  32  96 NW12      29.83R WCI  24
LINCOLN*       CLOUDY    41  31  68 NW9G17    29.84R
SPRINGFIELD    CLOUDY    43  33  68 NW23G33   29.86R
TAYLORVILLE    CLOUDY    43  32  65 NW21G33   29.85R
$$

ILZ033-039-045-046-055>057-062-063-120200-
EAST-CENTRAL ILLINOIS

CITY           SKY/WX    TMP DP  RH WIND       PRES   REMARKS
CHAMPAIGN      CLOUDY    40  27  59 NW21G30   29.77R
DANVILLE*      CLOUDY    39  27  60 W15G23    29.70R WCI  31
RANTOUL*       CLOUDY    41  30  64 NW20G29   29.76R
MATTOON        MOCLDY    43  31  62 NW29G36   29.79R
PARIS*         MOCLDY    40  28  63 W21G26    29.77R
$$

ILZ079-100>102-120200-
SOUTHWEST ILLINOIS

CITY           SKY/WX    TMP DP  RH WIND       PRES   REMARKS
ALTON          CLOUDY    46  34  61 NW20G31   29.91R
BELLEVILLE     CLOUDY    49  30  48 NW23G33   29.88R
CAHOKIA*       CLOUDY    49  30  48 NW26G40   29.91R
$$

ILZ064>066-069>071-074>076-080>082-084>086-088>090-092>094-120200-
SOUTH-CENTRAL ILLINOIS

CITY           SKY/WX    TMP DP  RH WIND       PRES   REMARKS
CARBONDALE     CLOUDY    51  28  41 NW13G24   29.89R
CAIRO*         MOCLDY    53  27  36 W15G21    29.91R
EFFINGHAM*     CLOUDY    46  33  61 W23G30    29.84R
MARION         MOCLDY    54  27  35 NW12G21   29.90R
MT. VERNON     CLOUDY    50  29  44 VRB7      29.87R
CENTRALIA*     CLOUDY    49  32  51 NW15      29.87R
SALEM*         CLOUDY    49  31  50 NW20G26   29.86R
METROPOLIS*    PTCLDY    53  25  33 NW18G25   29.89R
$$

ILZ067-068-072-073-078-083-087-091-120200-
SOUTHEAST ILLINOIS

CITY           SKY/WX    TMP DP  RH WIND       PRES   REMARKS
LAWRENCEVILLE  MOCLDY    48  30  49 NW22G29   29.81R
FLORA*         CLOUDY    49  32  51 W22G29    29.84R
FAIRFIELD*     CLOUDY    50  30  46 W8        29.85R
HARRISBURG*    CLOUDY    51  29  44 W9        29.88R
ROBINSON*      CLOUDY    46  31  54 W21G29    29.80R
CARMI*         CLOUDY    50  30  46 W18G24    29.85R
$$

ABBREVIATIONS USED IN REMARKS
   TC - TEMPERATURE IN CELSIUS
  WCI - WIND CHILL INDEX
   HX - HEAT INDEX
  VSB - VISIBILITY
$$





USA.gov is the U.S. government's official web portal to all federal, state and local government web resources and services.